QPF
0.00 0.00 0.00 0.00 0.00 0.00 0.00 0.00 0.00 0.00 0.00 0.00 0.00 0.00 0.00 0.00 0.00 0.00 0.00 0.00 0.02 0.02 0.02 0.03 0.05 0.05 0.06 0.06 0.04 0.04 0.04 0.04 0.03 0.02 0.02 0.02 0.02 0.02 0.02 0.03 0.03 0.03 0.04 0.03 0.03 0.03 0.03 0.03 0.04
0.00 0.00 0.00 0.00 0.00 0.00 0.00 0.00 0.00 0.00 0.00 0.00 0.00 0.00 0.00 0.00 0.00 0.00 0.00 0.01 0.01 0.02 0.03 0.03 0.04 0.05 0.06 0.05 0.04 0.04 0.04 0.05 0.04 0.02 0.02 0.03 0.03 0.02 0.02 0.02 0.03 0.03 0.03 0.02 0.03 0.03 0.03 0.02 0.02
0.00 0.00 0.00 0.00 0.00 0.00 0.00 0.00 0.00 0.00 0.00 0.00 0.00 0.00 0.00 0.00 0.00 0.00 0.00 0.01 0.01 0.02 0.03 0.03 0.04 0.05 0.06 0.06 0.06 0.07 0.06 0.05 0.04 0.03 0.02 0.03 0.04 0.03 0.02 0.02 0.02 0.01 0.02 0.02 0.02 0.02 0.02 0.02 0.02
0.00 0.00 0.00 0.00 0.00 0.00 0.00 0.00 0.00 0.00 0.00 0.00 0.00 0.00 0.00 0.00 0.00 0.00 0.00 0.00 0.01 0.02 0.03 0.04 0.04 0.05 0.06 0.06 0.08 0.08 0.07 0.07 0.05 0.03 0.03 0.03 0.03 0.02 0.02 0.02 0.02 0.01 0.02 0.03 0.02 0.02 0.02 0.02 0.02
0.00 0.00 0.00 0.00 0.00 0.00 0.00 0.00 0.00 0.00 0.00 0.00 0.00 0.00 0.00 0.00 0.00 0.00 0.00 0.01 0.01 0.02 0.03 0.05 0.06 0.05 0.04 0.05 0.06 0.08 0.07 0.07 0.07 0.06 0.04 0.03 0.03 0.02 0.03 0.02 0.02 0.02 0.02 0.03 0.02 0.02 0.02 0.02 0.02
0.00 0.00 0.00 0.00 0.00 0.00 0.00 0.00 0.00 0.00 0.00 0.00 0.00 0.00 0.00 0.00 0.00 0.00 0.01 0.01 0.02 0.03 0.03 0.05 0.06 0.06 0.05 0.04 0.05 0.08 0.08 0.07 0.07 0.08 0.06 0.05 0.03 0.03 0.04 0.04 0.03 0.02 0.02 0.02 0.02 0.03 0.02 0.02 0.02
0.00 0.00 0.00 0.00 0.00 0.00 0.00 0.00 0.00 0.00 0.00 0.00 0.00 0.00 0.00 0.00 0.00 0.00 0.01 0.02 0.02 0.03 0.03 0.04 0.06 0.06 0.05 0.04 0.04 0.06 0.08 0.07 0.06 0.06 0.07 0.06 0.04 0.04 0.05 0.05 0.05 0.04 0.03 0.03 0.03 0.03 0.02 0.02 0.01
0.00 0.00 0.00 0.00 0.00 0.00 0.00 0.00 0.00 0.00 0.00 0.00 0.00 0.00 0.00 0.00 0.00 0.01 0.01 0.02 0.02 0.03 0.03 0.03 0.04 0.05 0.05 0.05 0.03 0.05 0.08 0.08 0.07 0.06 0.05 0.06 0.06 0.06 0.05 0.05 0.05 0.05 0.04 0.04 0.03 0.02 0.02 0.02 0.02
0.00 0.00 0.00 0.00 0.00 0.00 0.00 0.00 0.00 0.00 0.00 0.00 0.00 0.00 0.00 0.00 0.01 0.01 0.01 0.02 0.02 0.03 0.03 0.02 0.03 0.04 0.04 0.05 0.05 0.05 0.09 0.10 0.09 0.08 0.06 0.06 0.06 0.06 0.06 0.07 0.08 0.07 0.05 0.05 0.04 0.03 0.02 0.02 0.02
0.00 0.00 0.00 0.00 0.00 0.00 0.00 0.00 0.00 0.00 0.00 0.00 0.00 0.00 0.00 0.00 0.01 0.01 0.01 0.02 0.02 0.02 0.03 0.03 0.03 0.02 0.02 0.03 0.04 0.05 0.09 0.11 0.09 0.06 0.06 0.06 0.06 0.08 0.09 0.11 0.14 0.15 0.12 0.08 0.06 0.04 0.03 0.03 0.02
0.00 0.00 0.00 0.00 0.00 0.00 0.00 0.00 0.00 0.00 0.00 0.00 0.00 0.00 0.00 0.00 0.01 0.01 0.01 0.01 0.02 0.03 0.03 0.03 0.02 0.01 0.01 0.02 0.03 0.05 0.08 0.12 0.10 0.07 0.05 0.05 0.04 0.06 0.08 0.08 0.08 0.10 0.11 0.12 0.09 0.05 0.03 0.03 0.02
0.00 0.00 0.00 0.00 0.00 0.00 0.00 0.00 0.00 0.00 0.00 0.00 0.00 0.00 0.00 0.01 0.01 0.01 0.01 0.01 0.01 0.02 0.03 0.03 0.02 0.02 0.01 0.01 0.02 0.05 0.08 0.10 0.09 0.06 0.05 0.04 0.03 0.04 0.04 0.05 0.05 0.05 0.06 0.08 0.08 0.05 0.04 0.03 0.02
0.00 0.00 0.00 0.00 0.00 0.00 0.00 0.00 0.00 0.00 0.00 0.00 0.00 0.00 0.00 0.01 0.01 0.01 0.01 0.01 0.01 0.02 0.02 0.03 0.02 0.01 0.01 0.01 0.02 0.05 0.06 0.08 0.07 0.05 0.05 0.04 0.04 0.03 0.04 0.03 0.04 0.04 0.04 0.06 0.06 0.06 0.05 0.05 0.04
0.00 0.00 0.00 0.00 0.00 0.00 0.00 0.00 0.00 0.00 0.00 0.00 0.00 0.00 0.00 0.01 0.01 0.01 0.01 0.02 0.01 0.01 0.02 0.02 0.03 0.02 0.02 0.02 0.02 0.04 0.05 0.06 0.07 0.04 0.04 0.04 0.04 0.04 0.04 0.05 0.05 0.04 0.03 0.04 0.05 0.05 0.06 0.06 0.06
0.00 0.00 0.00 0.00 0.00 0.00 0.00 0.00 0.00 0.00 0.00 0.00 0.00 0.00 0.00 0.00 0.01 0.01 0.01 0.01 0.02 0.01 0.01 0.01 0.02 0.02 0.02 0.02 0.03 0.03 0.04 0.06 0.07 0.05 0.04 0.04 0.04 0.04 0.04 0.04 0.06 0.05 0.05 0.05 0.04 0.04 0.06 0.07 0.07
0.01 0.01 0.01 0.00 0.00 0.00 0.00 0.00 0.00 0.00 0.00 0.00 0.00 0.00 0.00 0.00 0.01 0.01 0.01 0.01 0.01 0.01 0.01 0.01 0.02 0.01 0.01 0.01 0.01 0.02 0.04 0.05 0.07 0.08 0.06 0.05 0.04 0.04 0.04 0.04 0.04 0.05 0.06 0.06 0.05 0.04 0.03 0.04 0.05
0.00 0.01 0.00 0.00 0.00 0.00 0.00 0.00 0.00 0.00 0.00 0.00 0.00 0.00 0.01 0.01 0.00 0.01 0.01 0.01 0.01 0.01 0.01 0.02 0.02 0.02 0.01 0.01 0.01 0.01 0.02 0.04 0.07 0.08 0.08 0.06 0.05 0.04 0.03 0.04 0.05 0.05 0.07 0.07 0.05 0.05 0.05 0.04 0.04
0.00 0.00 0.00 0.00 0.00 0.00 0.00 0.00 0.00 0.00 0.00 0.00 0.00 0.00 0.01 0.01 0.01 0.01 0.01 0.02 0.02 0.01 0.01 0.02 0.02 0.01 0.01 0.02 0.01 0.02 0.02 0.03 0.06 0.08 0.09 0.08 0.06 0.05 0.04 0.04 0.05 0.06 0.08 0.09 0.07 0.05 0.06 0.05 0.05
0.01 0.01 0.00 0.00 0.00 0.00 0.01 0.00 0.00 0.00 0.00 0.01 0.00 0.00 0.01 0.01 0.01 0.01 0.02 0.02 0.02 0.02 0.02 0.02 0.02 0.02 0.02 0.02 0.02 0.02 0.02 0.03 0.06 0.07 0.07 0.08 0.07 0.06 0.05 0.04 0.05 0.08 0.10 0.09 0.08 0.05 0.05 0.06 0.06
0.01 0.01 0.00 0.00 0.00 0.01 0.01 0.01 0.00 0.00 0.00 0.00 0.01 0.01 0.01 0.01 0.01 0.02 0.02 0.02 0.03 0.03 0.02 0.02 0.02 0.02 0.02 0.01 0.01 0.01 0.02 0.03 0.05 0.06 0.06 0.07 0.08 0.06 0.05 0.04 0.06 0.08 0.13 0.11 0.09 0.08 0.06 0.06 0.06
0.00 0.00 0.00 0.00 0.00 0.01 0.02 0.02 0.01 0.01 0.01 0.01 0.01 0.01 0.01 0.01 0.02 0.02 0.03 0.03 0.03 0.03 0.03 0.02 0.02 0.02 0.02 0.02 0.02 0.02 0.03 0.04 0.05 0.06 0.06 0.06 0.07 0.07 0.05 0.05 0.06 0.09 0.12 0.13 0.10 0.08 0.07 0.07 0.06
0.00 0.00 0.00 0.00 0.01 0.02 0.02 0.03 0.02 0.02 0.03 0.02 0.01 0.01 0.01 0.01 0.02 0.02 0.03 0.04 0.04 0.03 0.03 0.03 0.03 0.03 0.03 0.03 0.03 0.02 0.03 0.05 0.06 0.06 0.05 0.06 0.06 0.07 0.06 0.07 0.08 0.10 0.11 0.12 0.11 0.08 0.07 0.08 0.08
0.00 0.00 0.00 0.00 0.01 0.02 0.02 0.03 0.01 0.01 0.02 0.03 0.02 0.02 0.02 0.01 0.02 0.02 0.03 0.03 0.04 0.03 0.03 0.03 0.05 0.05 0.05 0.06 0.04 0.04 0.05 0.09 0.09 0.07 0.05 0.06 0.07 0.07 0.07 0.06 0.07 0.09 0.12 0.12 0.11 0.10 0.08 0.08 0.09
0.00 0.00 0.00 0.00 0.01 0.01 0.01 0.01 0.01 0.03 0.04 0.03 0.02 0.03 0.03 0.02 0.02 0.02 0.03 0.04 0.05 0.04 0.03 0.03 0.05 0.07 0.08 0.07 0.06 0.05 0.06 0.11 0.09 0.07 0.05 0.06 0.07 0.08 0.10 0.07 0.07 0.07 0.10 0.14 0.12 0.11 0.09 0.07 0.08
0.00 0.00 0.00 0.00 0.01 0.01 0.01 0.01 0.02 0.04 0.05 0.03 0.03 0.03 0.03 0.03 0.03 0.03 0.04 0.04 0.05 0.04 0.04 0.03 0.03 0.06 0.10 0.11 0.09 0.08 0.08 0.09 0.07 0.06 0.06 0.05 0.07 0.07 0.10 0.10 0.08 0.06 0.06 0.12 0.14 0.11 0.08 0.07 0.07
0.00 0.00 0.01 0.01 0.00 0.00 0.01 0.02 0.02 0.03 0.03 0.03 0.03 0.04 0.04 0.03 0.05 0.05 0.04 0.04 0.04 0.04 0.05 0.03 0.03 0.04 0.06 0.07 0.08 0.08 0.07 0.06 0.07 0.05 0.05 0.06 0.06 0.07 0.07 0.08 0.08 0.05 0.05 0.07 0.13 0.13 0.10 0.07 0.06
0.00 0.00 0.01 0.01 0.01 0.01 0.01 0.01 0.01 0.02 0.02 0.02 0.03 0.04 0.05 0.04 0.05 0.07 0.06 0.04 0.03 0.04 0.05 0.04 0.04 0.04 0.05 0.06 0.06 0.08 0.08 0.06 0.05 0.04 0.04 0.05 0.06 0.07 0.05 0.06 0.06 0.04 0.04 0.05 0.09 0.13 0.11 0.09 0.07
0.00 0.01 0.01 0.02 0.02 0.01 0.01 0.01 0.02 0.02 0.02 0.02 0.04 0.06 0.06 0.05 0.06 0.08 0.08 0.04 0.03 0.04 0.04 0.04 0.05 0.05 0.05 0.06 0.06 0.08 0.09 0.07 0.06 0.04 0.04 0.04 0.05 0.06 0.05 0.04 0.05 0.04 0.03 0.03 0.06 0.09 0.11 0.10 0.09
0.00 0.01 0.01 0.02 0.02 0.02 0.01 0.01 0.02 0.02 0.02 0.03 0.04 0.07 0.07 0.06 0.07 0.08 0.08 0.05 0.03 0.03 0.03 0.04 0.05 0.05 0.05 0.06 0.07 0.08 0.10 0.09 0.07 0.05 0.04 0.04 0.04 0.06 0.05 0.04 0.04 0.04 0.04 0.03 0.05 0.06 0.07 0.09 0.09
0.01 0.01 0.02 0.03 0.03 0.02 0.02 0.02 0.02 0.02 0.02 0.03 0.05 0.07 0.07 0.07 0.08 0.08 0.07 0.06 0.03 0.03 0.03 0.03 0.05 0.05 0.05 0.06 0.07 0.09 0.09 0.08 0.08 0.06 0.04 0.03 0.04 0.04 0.05 0.05 0.04 0.03 0.03 0.03 0.04 0.06 0.06 0.06 0.08
MSLP
1012.43 1012.77 1013.30 1013.96 1014.65 1015.28 1015.78 1016.09 1016.21 1016.18 1016.06 1015.94 1015.87 1015.91 1016.07 1016.32 1016.62 1016.90 1017.11 1017.20 1017.17 1017.01 1016.77 1016.48 1016.20 1015.95 1015.76 1015.64 1015.58 1015.58 1015.61 1015.68 1015.77 1015.88 1016.02 1016.19 1016.37 1016.57 1016.76 1016.94 1017.09 1017.22 1017.31 1017.38 1017.43 1017.47 1017.52 1017.56 1017.61
1012.68 1013.08 1013.64 1014.31 1014.97 1015.54 1015.94 1016.14 1016.15 1016.00 1015.78 1015.58 1015.46 1015.48 1015.63 1015.90 1016.24 1016.58 1016.85 1017.01 1017.06 1016.98 1016.82 1016.61 1016.38 1016.18 1016.02 1015.91 1015.85 1015.83 1015.84 1015.89 1015.97 1016.08 1016.23 1016.41 1016.62 1016.84 1017.06 1017.25 1017.41 1017.54 1017.62 1017.68 1017.71 1017.74 1017.75 1017.78 1017.81
1012.95 1013.38 1013.95 1014.58 1015.17 1015.65 1015.95 1016.05 1015.97 1015.75 1015.48 1015.25 1015.13 1015.15 1015.32 1015.61 1015.98 1016.34 1016.66 1016.88 1016.98 1016.98 1016.90 1016.76 1016.62 1016.48 1016.37 1016.28 1016.23 1016.20 1016.18 1016.20 1016.25 1016.34 1016.46 1016.63 1016.84 1017.06 1017.28 1017.48 1017.64 1017.77 1017.85 1017.90 1017.93 1017.94 1017.95 1017.97 1017.99
1013.22 1013.66 1014.19 1014.75 1015.25 1015.62 1015.82 1015.84 1015.70 1015.46 1015.19 1014.99 1014.90 1014.97 1015.18 1015.50 1015.88 1016.27 1016.60 1016.84 1016.98 1017.03 1017.02 1016.96 1016.89 1016.82 1016.77 1016.72 1016.68 1016.63 1016.60 1016.58 1016.58 1016.62 1016.71 1016.85 1017.03 1017.23 1017.44 1017.63 1017.80 1017.92 1018.01 1018.06 1018.10 1018.12 1018.14 1018.16 1018.19
1013.44 1013.86 1014.34 1014.81 1015.20 1015.47 1015.58 1015.53 1015.38 1015.16 1014.95 1014.82 1014.82 1014.96 1015.22 1015.58 1015.98 1016.36 1016.68 1016.93 1017.08 1017.16 1017.20 1017.20 1017.20 1017.19 1017.18 1017.17 1017.14 1017.09 1017.03 1016.98 1016.93 1016.93 1016.97 1017.06 1017.20 1017.37 1017.56 1017.74 1017.90 1018.03 1018.13 1018.20 1018.25 1018.30 1018.34 1018.38 1018.42
1013.60 1013.99 1014.40 1014.78 1015.06 1015.23 1015.27 1015.19 1015.05 1014.89 1014.78 1014.76 1014.87 1015.10 1015.43 1015.82 1016.23 1016.60 1016.90 1017.13 1017.28 1017.37 1017.43 1017.47 1017.51 1017.54 1017.58 1017.59 1017.57 1017.52 1017.45 1017.36 1017.28 1017.24 1017.24 1017.29 1017.39 1017.53 1017.69 1017.85 1018.01 1018.14 1018.25 1018.34 1018.42 1018.49 1018.56 1018.63 1018.70
1013.70 1014.06 1014.41 1014.69 1014.88 1014.97 1014.96 1014.88 1014.77 1014.69 1014.68 1014.78 1015.00 1015.32 1015.71 1016.14 1016.55 1016.91 1017.19 1017.39 1017.53 1017.62 1017.68 1017.74 1017.80 1017.86 1017.92 1017.94 1017.94 1017.89 1017.81 1017.71 1017.62 1017.55 1017.53 1017.55 1017.62 1017.73 1017.86 1018.01 1018.15 1018.29 1018.41 1018.52 1018.62 1018.72 1018.82 1018.91 1019.01
1013.77 1014.11 1014.40 1014.62 1014.73 1014.76 1014.72 1014.64 1014.58 1014.57 1014.65 1014.85 1015.16 1015.55 1015.99 1016.44 1016.85 1017.19 1017.46 1017.64 1017.77 1017.85 1017.92 1017.99 1018.06 1018.13 1018.19 1018.22 1018.22 1018.18 1018.11 1018.02 1017.93 1017.87 1017.84 1017.85 1017.90 1017.99 1018.10 1018.22 1018.35 1018.48 1018.60 1018.73 1018.85 1018.97 1019.09 1019.20 1019.31
1013.86 1014.18 1014.44 1014.60 1014.67 1014.66 1014.60 1014.54 1014.50 1014.54 1014.69 1014.94 1015.29 1015.71 1016.16 1016.61 1017.01 1017.35 1017.61 1017.80 1017.93 1018.03 1018.12 1018.19 1018.27 1018.34 1018.40 1018.43 1018.43 1018.40 1018.35 1018.28 1018.22 1018.18 1018.16 1018.18 1018.23 1018.30 1018.39 1018.49 1018.60 1018.71 1018.83 1018.95 1019.08 1019.22 1019.35 1019.48 1019.60
1014.01 1014.33 1014.56 1014.70 1014.74 1014.71 1014.65 1014.59 1014.57 1014.63 1014.78 1015.04 1015.37 1015.77 1016.19 1016.60 1016.98 1017.31 1017.58 1017.79 1017.96 1018.11 1018.23 1018.33 1018.42 1018.50 1018.55 1018.58 1018.59 1018.57 1018.54 1018.51 1018.49 1018.48 1018.50 1018.53 1018.58 1018.64 1018.71 1018.78 1018.86 1018.95 1019.06 1019.18 1019.31 1019.44 1019.58 1019.71 1019.83
1014.25 1014.57 1014.79 1014.91 1014.95 1014.93 1014.87 1014.81 1014.79 1014.83 1014.95 1015.14 1015.40 1015.71 1016.05 1016.39 1016.73 1017.05 1017.34 1017.60 1017.84 1018.06 1018.24 1018.40 1018.53 1018.62 1018.68 1018.71 1018.72 1018.71 1018.71 1018.72 1018.74 1018.77 1018.82 1018.87 1018.92 1018.97 1019.02 1019.06 1019.11 1019.18 1019.26 1019.37 1019.49 1019.63 1019.77 1019.90 1020.02
1014.58 1014.89 1015.11 1015.24 1015.29 1015.29 1015.25 1015.20 1015.17 1015.17 1015.21 1015.30 1015.43 1015.60 1015.81 1016.05 1016.32 1016.62 1016.93 1017.26 1017.58 1017.89 1018.17 1018.41 1018.58 1018.71 1018.78 1018.82 1018.84 1018.86 1018.88 1018.92 1018.97 1019.04 1019.12 1019.18 1019.23 1019.27 1019.28 1019.30 1019.32 1019.36 1019.42 1019.52 1019.64 1019.78 1019.93 1020.06 1020.17
1014.95 1015.25 1015.48 1015.63 1015.71 1015.74 1015.74 1015.71 1015.68 1015.63 1015.58 1015.54 1015.52 1015.52 1015.56 1015.67 1015.85 1016.11 1016.44 1016.82 1017.24 1017.66 1018.04 1018.37 1018.62 1018.80 1018.90 1018.96 1018.99 1019.02 1019.06 1019.12 1019.21 1019.30 1019.39 1019.46 1019.50 1019.51 1019.50 1019.48 1019.47 1019.49 1019.54 1019.63 1019.76 1019.90 1020.06 1020.20 1020.32
1015.34 1015.62 1015.85 1016.02 1016.15 1016.25 1016.30 1016.33 1016.30 1016.23 1016.10 1015.94 1015.75 1015.57 1015.44 1015.39 1015.46 1015.66 1015.98 1016.41 1016.91 1017.42 1017.91 1018.34 1018.67 1018.90 1019.04 1019.13 1019.18 1019.22 1019.28 1019.36 1019.45 1019.55 1019.64 1019.70 1019.72 1019.70 1019.66 1019.62 1019.58 1019.59 1019.63 1019.73 1019.86 1020.02 1020.19 1020.35 1020.48
1015.69 1015.94 1016.17 1016.37 1016.56 1016.74 1016.88 1016.98 1017.01 1016.94 1016.77 1016.51 1016.19 1015.85 1015.54 1015.34 1015.28 1015.40 1015.70 1016.14 1016.68 1017.27 1017.85 1018.35 1018.75 1019.04 1019.23 1019.34 1019.41 1019.47 1019.54 1019.63 1019.73 1019.82 1019.90 1019.94 1019.93 1019.89 1019.82 1019.74 1019.70 1019.69 1019.74 1019.84 1019.99 1020.17 1020.35 1020.52 1020.67
1015.97 1016.20 1016.42 1016.65 1016.91 1017.18 1017.44 1017.65 1017.77 1017.75 1017.58 1017.27 1016.85 1016.38 1015.94 1015.59 1015.41 1015.43 1015.66 1016.09 1016.64 1017.27 1017.89 1018.45 1018.90 1019.24 1019.46 1019.61 1019.70 1019.78 1019.86 1019.95 1020.04 1020.13 1020.19 1020.20 1020.16 1020.09 1019.99 1019.90 1019.85 1019.84 1019.89 1020.00 1020.16 1020.34 1020.53 1020.71 1020.87
1016.20 1016.39 1016.60 1016.86 1017.19 1017.56 1017.95 1018.29 1018.53 1018.60 1018.49 1018.18 1017.72 1017.18 1016.62 1016.16 1015.86 1015.78 1015.94 1016.31 1016.83 1017.45 1018.08 1018.66 1019.14 1019.50 1019.75 1019.92 1020.03 1020.13 1020.22 1020.31 1020.41 1020.48 1020.52 1020.50 1020.44 1020.34 1020.23 1020.12 1020.06 1020.05 1020.11 1020.22 1020.38 1020.56 1020.75 1020.92 1021.08
1016.38 1016.53 1016.73 1017.02 1017.42 1017.89 1018.40 1018.88 1019.26 1019.46 1019.43 1019.18 1018.73 1018.16 1017.55 1017.01 1016.62 1016.44 1016.51 1016.80 1017.26 1017.83 1018.43 1018.99 1019.46 1019.82 1020.09 1020.27 1020.40 1020.50 1020.61 1020.71 1020.80 1020.87 1020.89 1020.86 1020.78 1020.66 1020.53 1020.42 1020.35 1020.34 1020.40 1020.51 1020.65 1020.82 1020.98 1021.13 1021.26
1016.55 1016.67 1016.86 1017.17 1017.61 1018.18 1018.80 1019.42 1019.93 1020.26 1020.34 1020.18 1019.79 1019.24 1018.62 1018.03 1017.58 1017.34 1017.32 1017.52 1017.90 1018.38 1018.91 1019.42 1019.85 1020.19 1020.44 1020.62 1020.76 1020.88 1021.00 1021.11 1021.20 1021.27 1021.28 1021.24 1021.15 1021.02 1020.89 1020.77 1020.70 1020.69 1020.74 1020.84 1020.96 1021.09 1021.21 1021.31 1021.40
1016.74 1016.82 1017.00 1017.32 1017.81 1018.44 1019.16 1019.88 1020.52 1020.97 1021.17 1021.11 1020.80 1020.30 1019.71 1019.13 1018.65 1018.35 1018.26 1018.38 1018.66 1019.05 1019.49 1019.92 1020.28 1020.58 1020.80 1020.96 1021.10 1021.22 1021.35 1021.47 1021.58 1021.64 1021.66 1021.62 1021.52 1021.40 1021.26 1021.15 1021.08 1021.07 1021.11 1021.18 1021.28 1021.36 1021.42 1021.46 1021.49
1016.95 1017.00 1017.18 1017.51 1018.03 1018.71 1019.49 1020.29 1021.01 1021.56 1021.86 1021.90 1021.68 1021.27 1020.74 1020.19 1019.71 1019.39 1019.25 1019.29 1019.48 1019.77 1020.10 1020.43 1020.72 1020.94 1021.12 1021.25 1021.38 1021.50 1021.63 1021.76 1021.87 1021.95 1021.97 1021.94 1021.85 1021.73 1021.61 1021.50 1021.44 1021.42 1021.46 1021.51 1021.57 1021.61 1021.62 1021.59 1021.54
1017.17 1017.21 1017.39 1017.73 1018.27 1018.98 1019.79 1020.64 1021.42 1022.03 1022.42 1022.54 1022.41 1022.08 1021.63 1021.13 1020.69 1020.36 1020.19 1020.17 1020.27 1020.47 1020.70 1020.93 1021.12 1021.26 1021.38 1021.47 1021.57 1021.68 1021.80 1021.94 1022.06 1022.15 1022.18 1022.16 1022.08 1021.97 1021.86 1021.76 1021.71 1021.70 1021.73 1021.78 1021.82 1021.83 1021.79 1021.71 1021.60
1017.39 1017.43 1017.62 1017.98 1018.53 1019.26 1020.09 1020.96 1021.77 1022.42 1022.86 1023.05 1023.00 1022.76 1022.38 1021.94 1021.54 1021.23 1021.04 1020.97 1021.01 1021.11 1021.24 1021.36 1021.46 1021.52 1021.56 1021.60 1021.66 1021.75 1021.87 1022.00 1022.12 1022.21 1022.25 1022.24 1022.18 1022.08 1021.98 1021.90 1021.86 1021.86 1021.90 1021.96 1022.00 1022.00 1021.94 1021.83 1021.69
1017.60 1017.66 1017.86 1018.24 1018.82 1019.55 1020.40 1021.27 1022.09 1022.77 1023.25 1023.49 1023.50 1023.32 1023.01 1022.64 1022.28 1021.99 1021.78 1021.68 1021.65 1021.67 1021.70 1021.73 1021.73 1021.71 1021.68 1021.66 1021.68 1021.73 1021.83 1021.94 1022.06 1022.15 1022.19 1022.18 1022.12 1022.03 1021.94 1021.87 1021.85 1021.88 1021.94 1022.02 1022.09 1022.11 1022.07 1021.97 1021.81
1017.82 1017.89 1018.12 1018.53 1019.12 1019.87 1020.73 1021.60 1022.43 1023.12 1023.62 1023.90 1023.96 1023.84 1023.59 1023.27 1022.94 1022.66 1022.44 1022.29 1022.20 1022.15 1022.09 1022.03 1021.94 1021.84 1021.74 1021.66 1021.63 1021.64 1021.70 1021.80 1021.90 1021.98 1022.01 1021.99 1021.93 1021.85 1021.76 1021.70 1021.69 1021.74 1021.84 1021.96 1022.07 1022.15 1022.16 1022.09 1021.97
1018.07 1018.16 1018.42 1018.85 1019.47 1020.23 1021.08 1021.96 1022.79 1023.49 1024.01 1024.32 1024.42 1024.35 1024.14 1023.86 1023.55 1023.26 1023.03 1022.84 1022.69 1022.56 1022.42 1022.28 1022.11 1021.94 1021.77 1021.63 1021.55 1021.52 1021.54 1021.60 1021.67 1021.73 1021.74 1021.71 1021.64 1021.54 1021.45 1021.40 1021.40 1021.46 1021.59 1021.76 1021.93 1022.08 1022.16 1022.17 1022.11
1018.42 1018.52 1018.79 1019.24 1019.86 1020.62 1021.47 1022.35 1023.18 1023.88 1024.42 1024.76 1024.90 1024.86 1024.69 1024.43 1024.13 1023.83 1023.56 1023.32 1023.12 1022.92 1022.72 1022.50 1022.27 1022.03 1021.80 1021.61 1021.47 1021.40 1021.37 1021.39 1021.42 1021.44 1021.42 1021.37 1021.28 1021.16 1021.06 1020.99 1021.00 1021.07 1021.22 1021.43 1021.66 1021.88 1022.06 1022.16 1022.18
1018.93 1019.03 1019.29 1019.72 1020.32 1021.06 1021.89 1022.75 1023.57 1024.29 1024.84 1025.20 1025.38 1025.37 1025.22 1024.97 1024.67 1024.35 1024.05 1023.76 1023.50 1023.24 1022.98 1022.71 1022.42 1022.14 1021.86 1021.62 1021.43 1021.30 1021.23 1021.19 1021.18 1021.15 1021.10 1021.01 1020.89 1020.75 1020.62 1020.54 1020.53 1020.60 1020.76 1020.99 1021.26 1021.54 1021.80 1021.99 1022.10
1019.63 1019.70 1019.92 1020.31 1020.85 1021.53 1022.31 1023.13 1023.93 1024.64 1025.20 1025.59 1025.79 1025.82 1025.69 1025.45 1025.14 1024.80 1024.47 1024.14 1023.83 1023.53 1023.23 1022.92 1022.60 1022.27 1021.96 1021.67 1021.44 1021.25 1021.12 1021.02 1020.95 1020.88 1020.79 1020.66 1020.51 1020.34 1020.18 1020.07 1020.02 1020.07 1020.21 1020.44 1020.73 1021.05 1021.36 1021.62 1021.82
1020.52 1020.54 1020.69 1020.98 1021.42 1022.01 1022.70 1023.45 1024.21 1024.89 1025.46 1025.87 1026.10 1026.15 1026.05 1025.82 1025.51 1025.17 1024.81 1024.45 1024.11 1023.78 1023.46 1023.12 1022.77 1022.42 1022.08 1021.75 1021.47 1021.23 1021.03 1020.88 1020.75 1020.63 1020.50 1020.34 1020.15 1019.95 1019.77 1019.62 1019.53 1019.53 1019.63 1019.83 1020.10 1020.42 1020.75 1021.06 1021.32
Thickness
5701 5704 5704 5697 5678 5657 5657 5664 5667 5668 5670 5672 5673 5672 5670 5669 5668 5667 5669 5675 5677 5679 5681 5683 5685 5687 5688 5689 5690 5691 5692 5693 5694 5695 5695 5696 5696 5697 5697 5697 5698 5699 5699 5700 5700 5700 5701 5701 5700
5697 5699 5694 5680 5660 5649 5654 5660 5661 5665 5667 5667 5667 5666 5664 5662 5663 5663 5665 5669 5672 5674 5676 5678 5680 5682 5683 5684 5685 5686 5687 5688 5689 5690 5691 5691 5692 5692 5693 5693 5694 5694 5695 5695 5696 5696 5697 5697 5697
5694 5692 5678 5662 5649 5649 5656 5658 5659 5660 5662 5662 5658 5657 5656 5655 5656 5657 5659 5663 5667 5669 5670 5672 5674 5675 5677 5678 5679 5680 5681 5683 5684 5685 5685 5686 5687 5687 5688 5689 5689 5690 5690 5691 5692 5692 5692 5692 5693
5686 5677 5664 5652 5647 5649 5653 5654 5654 5655 5656 5655 5652 5648 5648 5650 5650 5652 5655 5658 5660 5662 5664 5666 5667 5669 5671 5672 5673 5674 5675 5677 5678 5679 5680 5681 5682 5682 5683 5684 5684 5685 5686 5687 5687 5688 5688 5688 5688
5675 5662 5649 5637 5641 5645 5646 5647 5648 5648 5647 5646 5645 5642 5641 5643 5645 5647 5649 5651 5653 5654 5657 5659 5660 5662 5664 5665 5667 5668 5669 5670 5671 5673 5674 5675 5676 5677 5678 5679 5679 5680 5681 5682 5682 5683 5683 5684 5684
5657 5648 5634 5631 5638 5640 5640 5640 5641 5639 5638 5638 5637 5634 5634 5636 5637 5639 5642 5643 5645 5647 5649 5651 5653 5655 5657 5658 5660 5661 5663 5664 5665 5666 5668 5669 5670 5671 5672 5673 5674 5675 5676 5677 5678 5678 5679 5679 5679
5645 5634 5627 5629 5629 5633 5635 5633 5631 5629 5628 5628 5629 5627 5627 5628 5629 5631 5633 5636 5638 5639 5641 5643 5645 5646 5648 5651 5652 5654 5655 5657 5658 5659 5661 5662 5664 5665 5666 5667 5668 5670 5670 5671 5672 5673 5674 5674 5674
5638 5627 5620 5617 5621 5626 5626 5625 5624 5621 5620 5621 5620 5617 5617 5620 5621 5624 5625 5627 5629 5631 5632 5634 5636 5637 5639 5641 5643 5645 5647 5649 5650 5652 5653 5655 5656 5657 5659 5660 5662 5663 5664 5665 5666 5667 5668 5669 5669
5634 5617 5612 5615 5616 5619 5617 5615 5614 5612 5611 5610 5609 5609 5610 5612 5613 5615 5617 5618 5620 5621 5622 5624 5626 5628 5629 5631 5633 5636 5638 5640 5642 5644 5645 5647 5649 5650 5652 5653 5655 5656 5658 5659 5660 5661 5662 5663 5663
5618 5607 5613 5613 5611 5609 5607 5605 5603 5602 5601 5600 5600 5599 5600 5602 5604 5605 5606 5608 5610 5612 5613 5614 5616 5617 5619 5621 5622 5625 5628 5630 5633 5634 5637 5639 5640 5642 5644 5646 5648 5649 5651 5652 5653 5654 5655 5656 5657
5605 5602 5603 5602 5601 5600 5597 5594 5594 5593 5591 5592 5591 5591 5590 5592 5594 5595 5597 5598 5600 5602 5603 5605 5607 5608 5609 5611 5613 5615 5618 5621 5624 5626 5628 5630 5632 5633 5635 5638 5640 5641 5643 5645 5646 5647 5649 5650 5651
5591 5590 5591 5590 5590 5589 5586 5584 5581 5581 5585 5586 5585 5583 5582 5583 5584 5586 5588 5589 5590 5592 5594 5596 5597 5599 5600 5601 5603 5605 5608 5611 5613 5616 5619 5621 5623 5624 5626 5629 5631 5634 5635 5637 5639 5640 5642 5643 5644
5580 5579 5578 5576 5576 5575 5574 5572 5570 5572 5575 5575 5575 5574 5573 5574 5575 5577 5578 5580 5581 5583 5585 5586 5586 5589 5591 5592 5594 5596 5598 5600 5603 5606 5609 5611 5613 5615 5617 5619 5622 5625 5627 5629 5631 5633 5635 5636 5637
5568 5566 5566 5565 5565 5565 5563 5562 5560 5567 5565 5564 5564 5564 5564 5565 5566 5567 5568 5570 5572 5573 5575 5576 5578 5579 5581 5583 5584 5586 5588 5591 5593 5596 5598 5601 5604 5605 5607 5610 5613 5616 5619 5621 5623 5626 5628 5629 5630
5558 5555 5556 5555 5554 5552 5552 5555 5553 5557 5555 5554 5554 5555 5555 5556 5556 5558 5559 5560 5562 5564 5565 5567 5568 5569 5571 5573 5575 5576 5578 5581 5583 5586 5588 5591 5594 5596 5598 5601 5604 5607 5610 5613 5615 5618 5620 5621 5623
5547 5543 5543 5546 5542 5541 5542 5549 5551 5547 5544 5543 5544 5544 5544 5546 5547 5549 5550 5551 5552 5553 5555 5556 5558 5560 5562 5564 5565 5567 5569 5571 5573 5576 5578 5582 5585 5587 5590 5592 5594 5598 5601 5604 5607 5610 5612 5613 5614
5529 5527 5531 5534 5530 5528 5528 5534 5539 5535 5533 5533 5533 5533 5533 5535 5537 5538 5540 5541 5542 5544 5545 5546 5548 5550 5552 5554 5555 5556 5558 5560 5563 5565 5569 5572 5575 5578 5581 5583 5585 5588 5592 5596 5599 5601 5604 5605 5606
5522 5516 5518 5520 5517 5514 5512 5515 5524 5524 5522 5522 5522 5522 5522 5524 5527 5528 5528 5529 5531 5533 5535 5536 5538 5540 5541 5543 5545 5546 5548 5550 5552 5555 5558 5562 5565 5568 5571 5574 5576 5579 5583 5587 5591 5593 5595 5597 5599
5511 5506 5506 5507 5505 5501 5500 5504 5513 5514 5512 5511 5511 5510 5511 5513 5515 5516 5517 5518 5519 5521 5523 5525 5527 5529 5531 5532 5534 5536 5538 5540 5542 5545 5548 5552 5555 5558 5561 5564 5567 5570 5574 5577 5581 5585 5586 5588 5590
5500 5496 5493 5495 5495 5491 5487 5494 5502 5504 5502 5501 5500 5498 5498 5500 5501 5503 5505 5506 5507 5510 5512 5513 5515 5517 5519 5522 5523 5525 5527 5529 5532 5535 5537 5541 5544 5548 5551 5554 5558 5561 5564 5568 5572 5576 5578 5579 5582
5489 5484 5483 5481 5479 5478 5475 5490 5496 5496 5491 5489 5488 5487 5486 5488 5488 5490 5492 5493 5495 5497 5499 5502 5504 5506 5507 5510 5512 5512 5514 5517 5521 5524 5528 5530 5534 5537 5541 5544 5548 5551 5556 5560 5563 5567 5571 5572 5573
5480 5477 5475 5470 5463 5460 5462 5468 5489 5482 5479 5479 5476 5473 5473 5474 5476 5477 5479 5482 5483 5485 5488 5489 5492 5494 5496 5498 5500 5501 5503 5507 5510 5514 5518 5521 5524 5528 5532 5535 5539 5543 5547 5551 5555 5559 5562 5565 5566
5463 5461 5457 5454 5448 5441 5443 5445 5471 5467 5468 5469 5464 5461 5462 5462 5463 5465 5468 5470 5472 5474 5475 5477 5480 5482 5485 5487 5488 5490 5492 5496 5499 5503 5507 5510 5514 5518 5522 5526 5530 5534 5538 5542 5546 5550 5553 5557 5559
5451 5447 5439 5430 5429 5438 5440 5434 5455 5454 5457 5458 5454 5451 5450 5450 5451 5453 5456 5459 5461 5462 5464 5465 5468 5471 5474 5476 5478 5479 5481 5485 5488 5492 5496 5500 5504 5509 5513 5517 5521 5526 5529 5533 5537 5541 5544 5548 5551
5439 5433 5428 5428 5419 5432 5430 5426 5441 5449 5446 5444 5441 5438 5436 5437 5438 5441 5444 5446 5449 5451 5452 5453 5456 5459 5462 5465 5467 5469 5470 5473 5477 5482 5486 5490 5494 5498 5503 5507 5512 5516 5520 5524 5528 5531 5535 5539 5542
5423 5424 5423 5423 5418 5419 5415 5415 5435 5436 5432 5431 5428 5425 5425 5425 5427 5429 5432 5434 5436 5438 5439 5441 5444 5447 5450 5453 5455 5458 5460 5462 5467 5471 5476 5480 5484 5489 5493 5497 5502 5506 5510 5514 5518 5522 5526 5530 5533
5414 5406 5403 5393 5388 5391 5404 5402 5418 5428 5425 5421 5417 5415 5414 5415 5417 5419 5420 5422 5424 5425 5427 5429 5431 5434 5438 5441 5444 5447 5450 5453 5457 5462 5465 5470 5474 5478 5483 5487 5493 5497 5501 5505 5509 5513 5516 5519 5522
5404 5392 5383 5385 5393 5398 5400 5396 5408 5415 5416 5412 5406 5404 5405 5406 5406 5407 5410 5412 5414 5415 5416 5417 5419 5422 5426 5429 5432 5437 5440 5443 5447 5451 5455 5459 5464 5469 5473 5478 5483 5488 5492 5496 5500 5504 5507 5509 5512
5388 5382 5375 5368 5373 5378 5384 5403 5404 5400 5401 5397 5396 5394 5393 5393 5394 5395 5397 5401 5403 5404 5405 5406 5408 5411 5414 5418 5422 5425 5429 5433 5437 5441 5445 5449 5454 5459 5464 5468 5473 5478 5483 5487 5490 5494 5498 5500 5502
5377 5370 5364 5369 5363 5350 5358 5388 5396 5388 5385 5384 5383 5384 5383 5382 5383 5384 5386 5389 5391 5393 5394 5396 5398 5401 5404 5407 5411 5415 5418 5423 5427 5431 5435 5440 5444 5449 5454 5458 5463 5468 5473 5477 5481 5484 5488 5491 5494